When you browse on this site, cookies collect data to enhance your experience and personalize the content and advertising you see.
Visit our Privacy Policy to learn more. By continuing to use the site, you agree to this use of cookies and data.

Meteo orario Pontypool

Oggi, 8 Luglio, Mercoledi

Tempo Temperatura Precipitazioni Vento Pressione Umidità
00:00 +14°C° 0 mm 6 m/s 746 mm Hg 96%
01:00 +14°C° 0.4 mm 6 m/s 746 mm Hg 96%
02:00 +14°C° 0.4 mm 5 m/s 746 mm Hg 97%
03:00 +14°C° 0.4 mm 5 m/s 745 mm Hg 97%
04:00 +14°C° 0.6 mm 4 m/s 745 mm Hg 97%
05:00 +14°C° 0.6 mm 3 m/s 745 mm Hg 97%
06:00 +14°C° 0 mm 3 m/s 745 mm Hg 97%
07:00 +14°C° 0.2 mm 3 m/s 745 mm Hg 97%
08:00 +15°C° 0.2 mm 2 m/s 745 mm Hg 97%
09:00 +15°C° 0.2 mm 2 m/s 746 mm Hg 97%
10:00 +16°C° 0.1 mm 2 m/s 746 mm Hg 95%
11:00 +17°C° 0.1 mm 2 m/s 746 mm Hg 92%
12:00 +18°C° 0.1 mm 3 m/s 746 mm Hg 90%
13:00 +17°C° 0.1 mm 3 m/s 746 mm Hg 90%
14:00 +17°C° 0.1 mm 4 m/s 746 mm Hg 91%
15:00 +17°C° 0.1 mm 4 m/s 746 mm Hg 91%
16:00 +16°C° 0.3 mm 5 m/s 746 mm Hg 93%
17:00 +15°C° 0.3 mm 5 m/s 746 mm Hg 94%
18:00 +15°C° 0.3 mm 5 m/s 746 mm Hg 96%
19:00 +15°C° 0.3 mm 5 m/s 745 mm Hg 96%
20:00 +15°C° 0.3 mm 5 m/s 745 mm Hg 96%
21:00 +15°C° 0.3 mm 5 m/s 745 mm Hg 96%
22:00 +15°C° 0.2 mm 5 m/s 745 mm Hg 96%
23:00 +14°C° 0.2 mm 6 m/s 745 mm Hg 96%

Domani, 9 Luglio, Giovedi

Tempo Temperatura Precipitazioni Vento Pressione Umidità
00:00 +14°C° 0.2 mm 6 m/s 744 mm Hg 96%
01:00 +14°C° 0.5 mm 6 m/s 744 mm Hg 96%
02:00 +14°C° 0.5 mm 6 m/s 744 mm Hg 96%
03:00 +14°C° 0.5 mm 6 m/s 743 mm Hg 97%
04:00 +15°C° 0.2 mm 6 m/s 743 mm Hg 96%
05:00 +15°C° 0.2 mm 6 m/s 743 mm Hg 96%
06:00 +15°C° 0.2 mm 6 m/s 743 mm Hg 96%
07:00 +15°C° 0.1 mm 6 m/s 743 mm Hg 95%
08:00 +15°C° 0.1 mm 6 m/s 743 mm Hg 95%
09:00 +16°C° 0.1 mm 5 m/s 744 mm Hg 94%
10:00 +16°C° 0.1 mm 5 m/s 744 mm Hg 93%
11:00 +16°C° 0.1 mm 5 m/s 744 mm Hg 91%
12:00 +17°C° 0.1 mm 5 m/s 744 mm Hg 90%
13:00 +17°C° 0.1 mm 5 m/s 744 mm Hg 90%
14:00 +17°C° 0.1 mm 4 m/s 744 mm Hg 90%
15:00 +17°C° 0.1 mm 4 m/s 744 mm Hg 91%
16:00 +17°C° 0.1 mm 3 m/s 744 mm Hg 91%
17:00 +17°C° 0.1 mm 3 m/s 744 mm Hg 92%
18:00 +16°C° 0.1 mm 2 m/s 744 mm Hg 92%
19:00 +15°C° 0.1 mm 2 m/s 744 mm Hg 93%
20:00 +15°C° 0.1 mm 2 m/s 745 mm Hg 94%
21:00 +14°C° 0.1 mm 2 m/s 745 mm Hg 94%
22:00 +13°C° 0 mm 2 m/s 745 mm Hg 94%
23:00 +13°C° 0 mm 2 m/s 745 mm Hg 94%

Dopodomani, 10 Luglio, Venerdi

Tempo Temperatura Precipitazioni Vento Pressione Umidità
00:00 +12°C° 0 mm 2 m/s 746 mm Hg 94%
01:00 +12°C° 0 mm 2 m/s 746 mm Hg 94%
02:00 +10°C° 0 mm 2 m/s 746 mm Hg 94%
03:00 +9°C° 0 mm 2 m/s 746 mm Hg 95%
04:00 +9°C° 0 mm 2 m/s 746 mm Hg 93%
05:00 +10°C° 0 mm 2 m/s 747 mm Hg 91%
06:00 +10°C° 0 mm 2 m/s 747 mm Hg 89%
07:00 +11°C° 0 mm 3 m/s 748 mm Hg 82%
08:00 +12°C° 0 mm 4 m/s 748 mm Hg 75%
09:00 +14°C° 0 mm 6 m/s 748 mm Hg 68%
10:00 +14°C° 0.1 mm 6 m/s 749 mm Hg 67%
11:00 +15°C° 0.1 mm 6 m/s 749 mm Hg 67%
12:00 +15°C° 0.1 mm 6 m/s 749 mm Hg 66%
13:00 +15°C° 0.1 mm 7 m/s 749 mm Hg 66%
14:00 +15°C° 0.1 mm 7 m/s 749 mm Hg 66%
15:00 +15°C° 0.1 mm 7 m/s 749 mm Hg 66%
16:00 +15°C° 0 mm 7 m/s 750 mm Hg 68%
17:00 +15°C° 0 mm 6 m/s 750 mm Hg 71%
18:00 +14°C° 0 mm 6 m/s 750 mm Hg 73%
19:00 +13°C° 0 mm 5 m/s 751 mm Hg 78%
20:00 +11°C° 0 mm 4 m/s 751 mm Hg 83%
21:00 +10°C° 0 mm 3 m/s 752 mm Hg 88%
22:00 +9°C° 0 mm 3 m/s 752 mm Hg 89%
23:00 +9°C° 0 mm 2 m/s 752 mm Hg 89%

11 Luglio, Sabato

Tempo Temperatura Precipitazioni Vento Pressione Umidità
00:00 +8°C° 0 mm 2 m/s 752 mm Hg 90%
01:00 +8°C° 0 mm 2 m/s 753 mm Hg 90%
02:00 +9°C° 0 mm 1 m/s 753 mm Hg 91%
03:00 +9°C° 0 mm 1 m/s 753 mm Hg 91%
04:00 +9°C° 0 mm 1 m/s 753 mm Hg 90%
05:00 +10°C° 0 mm 1 m/s 753 mm Hg 89%
06:00 +11°C° 0 mm 1 m/s 754 mm Hg 88%
07:00 +13°C° 0 mm 2 m/s 754 mm Hg 82%
08:00 +14°C° 0 mm 2 m/s 754 mm Hg 76%
09:00 +16°C° 0 mm 3 m/s 755 mm Hg 71%
10:00 +17°C° 0 mm 3 m/s 755 mm Hg 67%
11:00 +18°C° 0 mm 3 m/s 755 mm Hg 64%
12:00 +18°C° 0 mm 3 m/s 755 mm Hg 61%
13:00 +18°C° 0 mm 3 m/s 755 mm Hg 62%
14:00 +18°C° 0 mm 3 m/s 755 mm Hg 63%
15:00 +19°C° 0 mm 4 m/s 755 mm Hg 64%
16:00 +18°C° 0 mm 4 m/s 755 mm Hg 67%
17:00 +18°C° 0 mm 3 m/s 755 mm Hg 70%
18:00 +17°C° 0 mm 3 m/s 755 mm Hg 72%
19:00 +14°C° 0 mm 3 m/s 755 mm Hg 77%
20:00 +13°C° 0 mm 2 m/s 755 mm Hg 81%
21:00 +12°C° 0 mm 1 m/s 755 mm Hg 85%
22:00 +11°C° 0 mm 1 m/s 755 mm Hg 85%
23:00 +10°C° 0 mm 1 m/s 755 mm Hg 85%

12 Luglio, Domenica

Tempo Temperatura Precipitazioni Vento Pressione Umidità
00:00 +9°C° 0 mm 1 m/s 755 mm Hg 84%
01:00 +9°C° 0 mm 1 m/s 755 mm Hg 84%
02:00 +9°C° 0 mm 1 m/s 755 mm Hg 83%
03:00 +8°C° 0 mm 1 m/s 755 mm Hg 83%
04:00 +9°C° 0 mm 1 m/s 755 mm Hg 82%
05:00 +9°C° 0 mm 0 m/s 755 mm Hg 81%
06:00 +10°C° 0 mm 0 m/s 755 mm Hg 81%
07:00 +12°C° 0 mm 0 m/s 755 mm Hg 76%
08:00 +15°C° 0 mm 1 m/s 755 mm Hg 71%
09:00 +16°C° 0 mm 1 m/s 755 mm Hg 67%
10:00 +18°C° 0 mm 1 m/s 755 mm Hg 63%
11:00 +18°C° 0 mm 2 m/s 755 mm Hg 60%
12:00 +19°C° 0 mm 2 m/s 755 mm Hg 57%
13:00 +19°C° 0 mm 2 m/s 755 mm Hg 58%
14:00 +19°C° 0 mm 3 m/s 755 mm Hg 58%
15:00 +19°C° 0 mm 3 m/s 755 mm Hg 59%
16:00 +18°C° 0 mm 3 m/s 755 mm Hg 63%
17:00 +18°C° 0 mm 3 m/s 754 mm Hg 67%
18:00 +17°C° 0 mm 3 m/s 754 mm Hg 71%
19:00 +16°C° 0 mm 2 m/s 754 mm Hg 76%
20:00 +14°C° 0 mm 2 m/s 754 mm Hg 80%
21:00 +12°C° 0 mm 1 m/s 754 mm Hg 84%
22:00 +12°C° 0 mm 1 m/s 754 mm Hg 84%
23:00 +11°C° 0 mm 1 m/s 754 mm Hg 85%

13 Luglio, Lunedi

Tempo Temperatura Precipitazioni Vento Pressione Umidità
00:00 +11°C° 0 mm 1 m/s 754 mm Hg 85%
01:00 +11°C° 0 mm 1 m/s 753 mm Hg 84%
02:00 +11°C° 0 mm 1 m/s 753 mm Hg 82%
03:00 +11°C° 0 mm 1 m/s 752 mm Hg 81%
04:00 +11°C° 0 mm 1 m/s 752 mm Hg 81%
05:00 +12°C° 0 mm 1 m/s 752 mm Hg 81%
06:00 +13°C° 0 mm 1 m/s 752 mm Hg 81%
07:00 +14°C° 0 mm 2 m/s 752 mm Hg 81%
08:00 +14°C° 0 mm 2 m/s 752 mm Hg 80%
09:00 +14°C° 0 mm 3 m/s 752 mm Hg 79%
10:00 +15°C° 0 mm 4 m/s 752 mm Hg 78%
11:00 +15°C° 0 mm 4 m/s 752 mm Hg 77%
12:00 +16°C° 0 mm 5 m/s 751 mm Hg 76%
13:00 +16°C° 0 mm 5 m/s 751 mm Hg 77%
14:00 +16°C° 0 mm 5 m/s 751 mm Hg 77%
15:00 +17°C° 0 mm 5 m/s 750 mm Hg 77%
16:00 +16°C° 0.1 mm 5 m/s 750 mm Hg 79%
17:00 +16°C° 0.1 mm 5 m/s 750 mm Hg 81%
18:00 +16°C° 0.1 mm 5 m/s 749 mm Hg 83%
19:00 +15°C° 0 mm 4 m/s 750 mm Hg 87%
20:00 +13°C° 0 mm 3 m/s 750 mm Hg 91%
21:00 +12°C° 0 mm 3 m/s 750 mm Hg 95%
22:00 +12°C° 0 mm 2 m/s 750 mm Hg 95%
23:00 +12°C° 0 mm 2 m/s 749 mm Hg 94%
Mostrare altro